IRIDIUM 71

Last updated on Wed Nov 29 2017 00:19:03 GMT+0000 (Coordinated Universal Time)

1 25320U 98026B 17332.54499755 .00000136 00000-0 37385-4 0 9991 2 25320 86.3980 172.4268 0003293 127.0251 233.1249 14.39119772 27101
UTC large
Height (km)
Speed (km/s)
/
Latitude / Longitude
Inclination (degrees)
Orbital Period (minutes)
Azimuth
Elevation
Range (km)
Doppler Factor

Next 0 passes for location: London (51.5072 / 0.1276)

Sorry there are no passes over London.
IRIDIUM 71